QPF
0.00 0.00 0.00 0.01 0.00 0.00 0.01 0.02 0.02 0.02 0.02 0.01 0.02 0.03 0.05 0.06 0.07 0.08 0.09 0.13 0.15 0.16 0.19 0.21 0.21 0.19 0.17 0.15 0.12 0.09 0.06 0.04 0.03 0.02 0.01 0.01 0.01 0.01 0.00 0.00 0.00 0.00 0.00
0.00 0.00 0.01 0.05 0.03 0.00 0.01 0.02 0.04 0.04 0.05 0.06 0.07 0.10 0.11 0.13 0.12 0.14 0.18 0.18 0.16 0.18 0.22 0.26 0.26 0.25 0.24 0.21 0.16 0.11 0.08 0.05 0.04 0.03 0.03 0.02 0.01 0.00 0.00 0.00 0.00 0.00 0.00
0.00 0.00 0.00 0.02 0.02 0.01 0.02 0.03 0.06 0.08 0.09 0.10 0.10 0.13 0.16 0.19 0.21 0.21 0.20 0.19 0.18 0.17 0.19 0.25 0.29 0.28 0.26 0.20 0.13 0.10 0.07 0.05 0.04 0.02 0.01 0.01 0.00 0.00 0.00 0.00 0.00 0.00 0.00
0.00 0.00 0.00 0.00 0.00 0.01 0.02 0.05 0.08 0.11 0.11 0.11 0.10 0.12 0.17 0.19 0.20 0.19 0.16 0.14 0.13 0.12 0.14 0.22 0.27 0.26 0.21 0.14 0.10 0.08 0.06 0.04 0.03 0.01 0.00 0.00 0.00 0.00 0.00 0.00 0.00 0.00 0.00
0.00 0.00 0.00 0.00 0.00 0.01 0.01 0.05 0.09 0.10 0.13 0.13 0.12 0.15 0.19 0.19 0.16 0.14 0.13 0.12 0.12 0.12 0.13 0.17 0.16 0.14 0.10 0.07 0.05 0.03 0.02 0.01 0.01 0.00 0.00 0.00 0.00 0.00 0.00 0.00 0.00 0.00 0.00
0.00 0.00 0.00 0.00 0.00 0.01 0.03 0.06 0.08 0.11 0.16 0.17 0.19 0.21 0.19 0.17 0.14 0.12 0.13 0.14 0.11 0.09 0.08 0.09 0.07 0.05 0.03 0.02 0.01 0.01 0.00 0.00 0.00 0.00 0.00 0.00 0.00 0.00 0.00 0.00 0.00 0.00 0.00
0.00 0.00 0.00 0.01 0.01 0.02 0.03 0.05 0.07 0.10 0.13 0.17 0.21 0.20 0.18 0.16 0.14 0.11 0.08 0.06 0.04 0.03 0.03 0.04 0.03 0.02 0.01 0.01 0.00 0.00 0.00 0.00 0.00 0.00 0.00 0.00 0.00 0.00 0.00 0.00 0.00 0.00 0.00
0.01 0.01 0.01 0.01 0.02 0.02 0.03 0.04 0.07 0.09 0.12 0.15 0.18 0.17 0.16 0.14 0.10 0.06 0.03 0.02 0.01 0.01 0.02 0.02 0.01 0.01 0.00 0.00 0.00 0.00 0.00 0.00 0.00 0.00 0.00 0.00 0.00 0.00 0.00 0.00 0.00 0.00 0.00
0.01 0.01 0.02 0.03 0.03 0.03 0.04 0.05 0.05 0.07 0.09 0.10 0.10 0.11 0.11 0.08 0.05 0.03 0.01 0.01 0.01 0.01 0.01 0.01 0.01 0.00 0.00 0.00 0.00 0.00 0.00 0.00 0.00 0.00 0.00 0.00 0.00 0.00 0.00 0.00 0.00 0.00 0.00
0.01 0.02 0.02 0.03 0.03 0.03 0.03 0.03 0.03 0.04 0.05 0.05 0.06 0.06 0.05 0.04 0.02 0.01 0.01 0.01 0.01 0.01 0.01 0.01 0.00 0.00 0.00 0.00 0.00 0.00 0.00 0.00 0.00 0.00 0.00 0.00 0.00 0.00 0.00 0.00 0.00 0.00 0.00
0.01 0.02 0.03 0.03 0.03 0.03 0.03 0.03 0.03 0.03 0.03 0.03 0.03 0.03 0.02 0.01 0.01 0.00 0.00 0.01 0.01 0.01 0.00 0.00 0.00 0.00 0.00 0.00 0.00 0.00 0.00 0.00 0.00 0.00 0.00 0.00 0.00 0.00 0.00 0.00 0.00 0.00 0.00
0.02 0.02 0.03 0.03 0.03 0.03 0.02 0.02 0.01 0.01 0.01 0.02 0.01 0.01 0.01 0.00 0.00 0.00 0.01 0.00 0.00 0.00 0.00 0.00 0.00 0.00 0.00 0.00 0.00 0.00 0.00 0.00 0.00 0.00 0.00 0.00 0.00 0.00 0.00 0.00 0.00 0.00 0.00
0.02 0.03 0.03 0.02 0.02 0.02 0.01 0.01 0.01 0.01 0.01 0.01 0.01 0.01 0.00 0.01 0.01 0.01 0.01 0.00 0.00 0.00 0.00 0.00 0.00 0.00 0.00 0.00 0.00 0.00 0.00 0.00 0.00 0.00 0.00 0.00 0.00 0.00 0.00 0.00 0.00 0.00 0.00
0.04 0.04 0.03 0.02 0.01 0.01 0.01 0.00 0.00 0.00 0.00 0.00 0.00 0.00 0.00 0.00 0.01 0.01 0.01 0.00 0.00 0.00 0.00 0.00 0.00 0.00 0.00 0.00 0.00 0.00 0.00 0.00 0.00 0.00 0.00 0.00 0.00 0.00 0.01 0.00 0.00 0.01 0.01
0.05 0.05 0.04 0.02 0.02 0.01 0.01 0.01 0.01 0.00 0.00 0.00 0.00 0.01 0.01 0.01 0.00 0.00 0.00 0.00 0.00 0.00 0.00 0.00 0.00 0.00 0.00 0.00 0.00 0.00 0.00 0.00 0.00 0.00 0.00 0.00 0.00 0.00 0.00 0.00 0.00 0.01 0.02
0.08 0.08 0.08 0.06 0.05 0.04 0.03 0.03 0.02 0.02 0.02 0.01 0.01 0.01 0.01 0.00 0.00 0.00 0.00 0.00 0.00 0.00 0.00 0.00 0.00 0.00 0.00 0.00 0.00 0.00 0.00 0.00 0.00 0.01 0.01 0.01 0.00 0.00 0.00 0.00 0.01 0.01 0.02
0.15 0.14 0.14 0.13 0.12 0.10 0.08 0.07 0.05 0.04 0.03 0.02 0.01 0.01 0.00 0.00 0.00 0.00 0.00 0.00 0.00 0.00 0.00 0.00 0.00 0.00 0.00 0.00 0.00 0.00 0.00 0.00 0.01 0.01 0.01 0.01 0.00 0.01 0.01 0.01 0.00 0.01 0.01
0.22 0.23 0.23 0.23 0.21 0.18 0.13 0.10 0.06 0.04 0.03 0.02 0.01 0.01 0.01 0.01 0.01 0.01 0.01 0.01 0.01 0.01 0.01 0.00 0.00 0.01 0.00 0.00 0.00 0.00 0.00 0.00 0.01 0.01 0.01 0.01 0.01 0.01 0.00 0.00 0.00 0.01 0.02
0.27 0.30 0.30 0.26 0.20 0.14 0.10 0.07 0.05 0.04 0.04 0.03 0.03 0.02 0.01 0.01 0.01 0.01 0.01 0.01 0.01 0.01 0.00 0.00 0.00 0.01 0.01 0.00 0.00 0.00 0.00 0.00 0.01 0.01 0.01 0.01 0.01 0.01 0.00 0.00 0.01 0.01 0.02
0.18 0.16 0.14 0.11 0.08 0.07 0.05 0.03 0.02 0.02 0.02 0.01 0.01 0.01 0.01 0.01 0.01 0.01 0.01 0.01 0.01 0.01 0.00 0.00 0.00 0.01 0.02 0.00 0.00 0.00 0.00 0.00 0.00 0.01 0.01 0.01 0.00 0.00 0.00 0.00 0.01 0.02 0.03
0.10 0.08 0.06 0.05 0.04 0.03 0.03 0.02 0.02 0.01 0.01 0.01 0.01 0.01 0.01 0.01 0.01 0.01 0.01 0.01 0.01 0.01 0.01 0.01 0.01 0.01 0.01 0.00 0.00 0.00 0.00 0.00 0.00 0.01 0.01 0.02 0.00 0.00 0.00 0.00 0.01 0.02 0.01
0.04 0.04 0.03 0.03 0.02 0.02 0.02 0.02 0.02 0.01 0.01 0.01 0.01 0.01 0.01 0.00 0.00 0.01 0.01 0.01 0.02 0.02 0.02 0.02 0.02 0.01 0.01 0.00 0.00 0.00 0.00 0.00 0.01 0.02 0.02 0.01 0.00 0.00 0.00 0.00 0.01 0.00 0.01
0.01 0.01 0.01 0.01 0.02 0.02 0.02 0.02 0.02 0.02 0.02 0.03 0.02 0.02 0.01 0.00 0.00 0.01 0.01 0.02 0.03 0.02 0.02 0.02 0.02 0.02 0.01 0.01 0.00 0.00 0.00 0.00 0.01 0.01 0.01 0.00 0.00 0.00 0.02 0.02 0.00 0.02 0.06
0.01 0.01 0.02 0.02 0.03 0.03 0.04 0.05 0.04 0.04 0.05 0.06 0.05 0.03 0.02 0.01 0.01 0.01 0.01 0.02 0.03 0.01 0.01 0.02 0.02 0.02 0.02 0.01 0.00 0.00 0.01 0.01 0.01 0.01 0.01 0.01 0.01 0.01 0.03 0.05 0.07 0.09 0.09
0.02 0.02 0.03 0.03 0.03 0.03 0.04 0.04 0.04 0.05 0.07 0.07 0.04 0.02 0.02 0.01 0.01 0.02 0.01 0.01 0.01 0.00 0.00 0.01 0.01 0.01 0.01 0.00 0.00 0.00 0.00 0.00 0.00 0.00 0.01 0.03 0.03 0.03 0.04 0.06 0.08 0.10 0.10
0.02 0.02 0.02 0.02 0.02 0.02 0.02 0.02 0.03 0.04 0.05 0.06 0.03 0.01 0.01 0.01 0.01 0.02 0.03 0.01 0.00 0.00 0.00 0.00 0.00 0.00 0.00 0.00 0.00 0.00 0.00 0.00 0.00 0.00 0.02 0.02 0.02 0.02 0.03 0.04 0.05 0.07 0.09
MSLP
1002.64 1003.04 1003.51 1004.00 1004.54 1005.14 1005.83 1006.63 1007.56 1008.60 1009.71 1010.83 1011.90 1012.85 1013.63 1014.23 1014.65 1014.95 1015.16 1015.34 1015.56 1015.86 1016.24 1016.71 1017.25 1017.82 1018.39 1018.93 1019.41 1019.82 1020.16 1020.41 1020.60 1020.73 1020.80 1020.81 1020.79 1020.74 1020.67 1020.60 1020.55 1020.52 1020.54
1003.02 1003.40 1003.79 1004.19 1004.61 1005.09 1005.68 1006.40 1007.30 1008.34 1009.49 1010.68 1011.82 1012.85 1013.70 1014.35 1014.80 1015.10 1015.30 1015.48 1015.69 1015.98 1016.36 1016.84 1017.38 1017.95 1018.53 1019.07 1019.56 1019.97 1020.32 1020.60 1020.81 1020.95 1021.04 1021.06 1021.03 1020.94 1020.82 1020.67 1020.53 1020.41 1020.34
1003.82 1004.18 1004.51 1004.81 1005.09 1005.42 1005.86 1006.45 1007.25 1008.23 1009.35 1010.54 1011.71 1012.78 1013.69 1014.39 1014.89 1015.24 1015.48 1015.69 1015.92 1016.23 1016.61 1017.08 1017.61 1018.16 1018.70 1019.21 1019.66 1020.06 1020.40 1020.68 1020.91 1021.08 1021.20 1021.25 1021.23 1021.13 1020.97 1020.77 1020.56 1020.35 1020.19
1004.99 1005.36 1005.65 1005.84 1005.99 1006.15 1006.41 1006.84 1007.48 1008.33 1009.36 1010.50 1011.65 1012.72 1013.66 1014.41 1014.97 1015.38 1015.69 1015.96 1016.25 1016.58 1016.99 1017.45 1017.95 1018.46 1018.95 1019.40 1019.79 1020.14 1020.45 1020.73 1020.97 1021.18 1021.33 1021.42 1021.42 1021.34 1021.17 1020.93 1020.66 1020.38 1020.14
1006.42 1006.82 1007.09 1007.21 1007.23 1007.24 1007.31 1007.55 1008.00 1008.69 1009.58 1010.61 1011.70 1012.74 1013.68 1014.46 1015.08 1015.56 1015.95 1016.29 1016.64 1017.02 1017.44 1017.90 1018.37 1018.83 1019.26 1019.64 1019.97 1020.27 1020.54 1020.80 1021.05 1021.29 1021.48 1021.60 1021.65 1021.58 1021.42 1021.16 1020.85 1020.52 1020.21
1007.96 1008.41 1008.67 1008.75 1008.68 1008.55 1008.46 1008.52 1008.79 1009.30 1010.04 1010.93 1011.92 1012.90 1013.81 1014.60 1015.25 1015.79 1016.24 1016.65 1017.06 1017.49 1017.93 1018.39 1018.84 1019.25 1019.61 1019.93 1020.20 1020.44 1020.68 1020.92 1021.17 1021.42 1021.65 1021.81 1021.88 1021.85 1021.70 1021.45 1021.12 1020.75 1020.40
1009.42 1009.94 1010.23 1010.28 1010.16 1009.94 1009.74 1009.65 1009.77 1010.12 1010.70 1011.45 1012.32 1013.21 1014.07 1014.84 1015.50 1016.07 1016.57 1017.03 1017.48 1017.94 1018.40 1018.86 1019.29 1019.66 1019.98 1020.24 1020.46 1020.66 1020.87 1021.09 1021.33 1021.59 1021.83 1022.02 1022.13 1022.12 1021.99 1021.75 1021.43 1021.05 1020.67
1010.68 1011.26 1011.59 1011.66 1011.53 1011.27 1011.00 1010.83 1010.84 1011.07 1011.52 1012.16 1012.91 1013.71 1014.49 1015.21 1015.85 1016.41 1016.92 1017.40 1017.87 1018.35 1018.82 1019.27 1019.69 1020.04 1020.34 1020.57 1020.76 1020.92 1021.10 1021.30 1021.53 1021.78 1022.02 1022.22 1022.34 1022.36 1022.26 1022.04 1021.74 1021.37 1020.99
1011.68 1012.32 1012.69 1012.79 1012.67 1012.42 1012.15 1011.95 1011.91 1012.08 1012.45 1013.00 1013.65 1014.36 1015.06 1015.71 1016.30 1016.82 1017.31 1017.77 1018.24 1018.71 1019.18 1019.63 1020.04 1020.39 1020.67 1020.89 1021.07 1021.21 1021.37 1021.54 1021.75 1021.97 1022.20 1022.39 1022.52 1022.55 1022.48 1022.29 1022.02 1021.68 1021.32
1012.44 1013.10 1013.50 1013.63 1013.56 1013.36 1013.12 1012.96 1012.94 1013.10 1013.44 1013.94 1014.53 1015.16 1015.77 1016.35 1016.86 1017.32 1017.74 1018.17 1018.60 1019.04 1019.50 1019.95 1020.36 1020.72 1021.01 1021.24 1021.41 1021.55 1021.68 1021.83 1021.99 1022.18 1022.37 1022.54 1022.66 1022.70 1022.65 1022.50 1022.27 1021.96 1021.63
1013.05 1013.69 1014.09 1014.26 1014.23 1014.10 1013.95 1013.86 1013.91 1014.11 1014.47 1014.95 1015.50 1016.07 1016.61 1017.10 1017.53 1017.91 1018.26 1018.62 1019.00 1019.42 1019.85 1020.30 1020.71 1021.09 1021.39 1021.63 1021.81 1021.94 1022.05 1022.16 1022.29 1022.42 1022.57 1022.70 1022.79 1022.83 1022.79 1022.67 1022.47 1022.21 1021.90
1013.63 1014.23 1014.60 1014.77 1014.79 1014.73 1014.67 1014.69 1014.83 1015.11 1015.52 1016.01 1016.55 1017.07 1017.55 1017.96 1018.31 1018.60 1018.88 1019.17 1019.50 1019.87 1020.29 1020.72 1021.15 1021.53 1021.86 1022.11 1022.29 1022.42 1022.50 1022.57 1022.63 1022.71 1022.79 1022.87 1022.92 1022.94 1022.91 1022.81 1022.64 1022.40 1022.11
1014.31 1014.81 1015.13 1015.29 1015.34 1015.35 1015.38 1015.50 1015.74 1016.11 1016.57 1017.10 1017.63 1018.13 1018.55 1018.90 1019.16 1019.38 1019.59 1019.82 1020.10 1020.44 1020.83 1021.25 1021.68 1022.08 1022.41 1022.67 1022.85 1022.96 1023.01 1023.02 1023.03 1023.03 1023.04 1023.06 1023.07 1023.06 1023.01 1022.92 1022.76 1022.54 1022.25
1015.12 1015.53 1015.77 1015.90 1015.96 1016.02 1016.14 1016.35 1016.68 1017.12 1017.64 1018.19 1018.72 1019.19 1019.57 1019.85 1020.06 1020.22 1020.37 1020.55 1020.78 1021.09 1021.46 1021.88 1022.30 1022.70 1023.03 1023.29 1023.45 1023.53 1023.54 1023.50 1023.44 1023.37 1023.31 1023.25 1023.21 1023.16 1023.09 1022.98 1022.82 1022.59 1022.30
1016.09 1016.38 1016.54 1016.63 1016.70 1016.79 1016.96 1017.24 1017.64 1018.13 1018.68 1019.24 1019.76 1020.20 1020.53 1020.77 1020.93 1021.04 1021.15 1021.29 1021.50 1021.78 1022.13 1022.53 1022.94 1023.33 1023.65 1023.89 1024.03 1024.07 1024.03 1023.94 1023.81 1023.67 1023.53 1023.42 1023.31 1023.22 1023.11 1022.97 1022.78 1022.53 1022.21
1017.13 1017.32 1017.42 1017.47 1017.53 1017.65 1017.86 1018.18 1018.62 1019.13 1019.68 1020.22 1020.70 1021.10 1021.39 1021.59 1021.70 1021.78 1021.86 1021.98 1022.16 1022.43 1022.76 1023.13 1023.52 1023.88 1024.18 1024.39 1024.50 1024.50 1024.42 1024.27 1024.08 1023.88 1023.68 1023.50 1023.34 1023.19 1023.03 1022.84 1022.62 1022.33 1021.97
1018.17 1018.28 1018.34 1018.37 1018.43 1018.56 1018.79 1019.13 1019.56 1020.06 1020.58 1021.08 1021.51 1021.85 1022.10 1022.24 1022.32 1022.37 1022.43 1022.54 1022.70 1022.95 1023.25 1023.60 1023.96 1024.28 1024.55 1024.72 1024.79 1024.76 1024.64 1024.44 1024.21 1023.96 1023.71 1023.48 1023.26 1023.05 1022.83 1022.60 1022.32 1021.99 1021.59
1019.09 1019.18 1019.21 1019.24 1019.31 1019.46 1019.70 1020.03 1020.44 1020.90 1021.36 1021.79 1022.15 1022.43 1022.61 1022.71 1022.76 1022.78 1022.83 1022.92 1023.07 1023.29 1023.57 1023.88 1024.20 1024.49 1024.71 1024.85 1024.88 1024.82 1024.67 1024.45 1024.19 1023.90 1023.61 1023.33 1023.06 1022.80 1022.52 1022.23 1021.90 1021.52 1021.08
1019.85 1019.93 1019.98 1020.04 1020.13 1020.29 1020.53 1020.84 1021.21 1021.61 1022.00 1022.34 1022.62 1022.82 1022.94 1022.99 1023.01 1023.01 1023.04 1023.12 1023.26 1023.46 1023.71 1023.99 1024.27 1024.51 1024.69 1024.80 1024.81 1024.73 1024.56 1024.33 1024.05 1023.74 1023.42 1023.10 1022.78 1022.46 1022.13 1021.78 1021.40 1020.98 1020.51
1020.41 1020.53 1020.61 1020.70 1020.83 1021.01 1021.24 1021.53 1021.85 1022.18 1022.48 1022.74 1022.93 1023.06 1023.11 1023.12 1023.11 1023.10 1023.12 1023.19 1023.31 1023.49 1023.72 1023.96 1024.20 1024.41 1024.57 1024.65 1024.64 1024.55 1024.38 1024.15 1023.86 1023.53 1023.19 1022.83 1022.46 1022.08 1021.69 1021.29 1020.86 1020.40 1019.93
1020.80 1020.96 1021.10 1021.24 1021.39 1021.59 1021.82 1022.07 1022.34 1022.60 1022.82 1023.00 1023.11 1023.17 1023.17 1023.15 1023.12 1023.10 1023.12 1023.19 1023.30 1023.47 1023.68 1023.90 1024.12 1024.30 1024.43 1024.49 1024.48 1024.39 1024.22 1023.98 1023.68 1023.34 1022.96 1022.56 1022.14 1021.71 1021.26 1020.80 1020.34 1019.86 1019.38
1021.05 1021.26 1021.45 1021.63 1021.81 1022.02 1022.24 1022.46 1022.68 1022.87 1023.02 1023.13 1023.18 1023.19 1023.16 1023.12 1023.08 1023.07 1023.10 1023.17 1023.30 1023.47 1023.67 1023.88 1024.08 1024.25 1024.37 1024.42 1024.40 1024.31 1024.14 1023.89 1023.58 1023.21 1022.80 1022.35 1021.87 1021.37 1020.87 1020.36 1019.86 1019.37 1018.90
1021.22 1021.47 1021.69 1021.89 1022.10 1022.30 1022.51 1022.70 1022.87 1023.00 1023.10 1023.15 1023.16 1023.13 1023.09 1023.05 1023.03 1023.04 1023.09 1023.20 1023.35 1023.53 1023.74 1023.96 1024.16 1024.32 1024.44 1024.48 1024.46 1024.36 1024.17 1023.91 1023.56 1023.16 1022.69 1022.18 1021.64 1021.08 1020.52 1019.96 1019.44 1018.94 1018.49
1021.34 1021.60 1021.83 1022.04 1022.24 1022.44 1022.62 1022.78 1022.91 1023.00 1023.05 1023.06 1023.05 1023.02 1022.98 1022.96 1022.97 1023.02 1023.12 1023.26 1023.45 1023.67 1023.91 1024.14 1024.35 1024.52 1024.63 1024.68 1024.64 1024.52 1024.31 1024.00 1023.61 1023.15 1022.62 1022.04 1021.43 1020.81 1020.19 1019.60 1019.06 1018.56 1018.13
1021.42 1021.67 1021.89 1022.09 1022.28 1022.44 1022.59 1022.72 1022.81 1022.86 1022.89 1022.88 1022.86 1022.83 1022.82 1022.83 1022.88 1022.98 1023.14 1023.34 1023.58 1023.85 1024.13 1024.39 1024.62 1024.80 1024.91 1024.95 1024.89 1024.74 1024.48 1024.13 1023.68 1023.15 1022.54 1021.89 1021.22 1020.54 1019.88 1019.26 1018.70 1018.22 1017.81
1021.48 1021.69 1021.88 1022.05 1022.20 1022.34 1022.45 1022.54 1022.60 1022.62 1022.62 1022.61 1022.59 1022.58 1022.59 1022.64 1022.75 1022.91 1023.12 1023.39 1023.69 1024.01 1024.33 1024.63 1024.89 1025.08 1025.19 1025.21 1025.12 1024.93 1024.62 1024.21 1023.69 1023.09 1022.42 1021.71 1020.97 1020.25 1019.56 1018.92 1018.37 1017.89 1017.51
Thickness
5839 5844 5842 5839 5831 5824 5816 5809 5800 5793 5786 5777 5769 5762 5756 5751 5745 5740 5735 5731 5726 5721 5714 5705 5697 5690 5683 5676 5671 5666 5663 5660 5660 5658 5658 5660 5661 5660 5660 5658 5656 5654 5653
5829 5830 5831 5829 5824 5819 5813 5805 5797 5789 5782 5774 5768 5760 5752 5746 5741 5734 5728 5723 5719 5713 5707 5700 5692 5685 5678 5672 5667 5662 5658 5654 5652 5650 5649 5648 5651 5652 5654 5651 5648 5647 5645
5815 5818 5819 5820 5819 5814 5809 5804 5795 5786 5778 5769 5760 5751 5743 5737 5731 5724 5719 5715 5710 5705 5700 5694 5687 5680 5674 5668 5663 5659 5654 5649 5646 5645 5642 5638 5638 5641 5644 5643 5641 5639 5636
5808 5808 5809 5808 5810 5810 5808 5801 5792 5782 5772 5763 5754 5745 5737 5730 5725 5718 5712 5707 5702 5697 5692 5687 5680 5674 5669 5663 5658 5652 5647 5644 5639 5636 5634 5632 5629 5625 5627 5630 5631 5629 5625
5790 5789 5791 5793 5797 5801 5801 5794 5785 5773 5764 5756 5748 5740 5732 5725 5717 5710 5703 5696 5691 5687 5682 5677 5672 5666 5660 5655 5650 5644 5640 5637 5633 5630 5627 5624 5621 5618 5613 5613 5615 5614 5613
5772 5772 5774 5777 5779 5782 5782 5778 5769 5760 5753 5745 5738 5731 5722 5715 5707 5700 5692 5686 5680 5675 5671 5667 5662 5657 5651 5646 5641 5636 5632 5628 5624 5621 5619 5615 5611 5608 5605 5601 5599 5598 5597
5754 5753 5752 5752 5754 5757 5757 5755 5750 5742 5737 5731 5724 5719 5712 5705 5697 5689 5681 5676 5670 5664 5660 5656 5651 5646 5641 5636 5631 5627 5622 5618 5614 5609 5606 5602 5598 5596 5592 5588 5585 5583 5581
5736 5733 5732 5732 5733 5734 5735 5733 5730 5724 5720 5715 5710 5705 5700 5693 5685 5678 5672 5666 5660 5654 5649 5644 5640 5635 5630 5625 5621 5616 5611 5606 5601 5598 5593 5588 5584 5580 5576 5572 5568 5565 5564
5719 5716 5714 5714 5714 5715 5714 5714 5712 5708 5704 5700 5696 5690 5685 5679 5672 5666 5660 5653 5647 5641 5636 5632 5627 5622 5617 5612 5608 5603 5598 5593 5589 5584 5580 5574 5569 5565 5560 5555 5550 5546 5545
5703 5700 5698 5697 5697 5698 5698 5697 5696 5693 5689 5686 5682 5676 5670 5664 5658 5653 5645 5640 5634 5629 5624 5619 5614 5609 5604 5599 5595 5590 5585 5580 5575 5570 5565 5559 5554 5548 5543 5538 5534 5529 5526
5687 5685 5683 5683 5683 5683 5683 5681 5680 5677 5673 5669 5665 5660 5655 5650 5644 5638 5631 5626 5620 5615 5610 5605 5600 5595 5590 5585 5580 5576 5571 5566 5560 5554 5549 5543 5538 5532 5526 5521 5517 5513 5508
5673 5671 5670 5670 5669 5668 5667 5665 5663 5660 5656 5652 5648 5643 5638 5633 5627 5621 5616 5610 5605 5600 5595 5590 5585 5580 5575 5570 5565 5560 5555 5550 5544 5538 5533 5527 5522 5516 5511 5505 5500 5495 5489
5659 5658 5656 5656 5655 5654 5652 5650 5648 5644 5640 5636 5631 5626 5620 5615 5610 5604 5599 5594 5589 5584 5579 5574 5569 5564 5560 5555 5550 5544 5539 5533 5528 5523 5518 5513 5507 5502 5496 5489 5484 5479 5474
5645 5643 5641 5640 5640 5639 5637 5635 5632 5628 5624 5619 5614 5608 5602 5597 5592 5587 5582 5577 5572 5567 5563 5558 5553 5549 5543 5537 5531 5526 5522 5518 5513 5508 5504 5499 5494 5489 5482 5476 5470 5466 5459
5630 5628 5626 5624 5623 5622 5620 5617 5614 5610 5606 5601 5595 5589 5583 5578 5573 5568 5564 5559 5555 5550 5546 5541 5537 5532 5524 5515 5510 5506 5505 5501 5498 5495 5491 5486 5482 5477 5468 5463 5457 5451 5447
5615 5612 5609 5607 5605 5603 5601 5598 5594 5590 5586 5581 5575 5569 5564 5558 5553 5549 5545 5541 5538 5534 5530 5525 5520 5514 5505 5497 5492 5488 5486 5485 5484 5482 5478 5473 5471 5466 5458 5452 5447 5441 5438
5598 5594 5591 5588 5586 5583 5581 5577 5574 5570 5565 5560 5555 5550 5545 5540 5535 5532 5528 5525 5521 5517 5513 5508 5503 5496 5486 5481 5477 5474 5472 5471 5471 5469 5466 5462 5459 5454 5448 5443 5440 5436 5434
5582 5577 5574 5571 5568 5564 5560 5557 5553 5549 5544 5540 5536 5531 5528 5524 5519 5516 5513 5509 5505 5502 5497 5492 5487 5481 5472 5466 5463 5460 5461 5462 5461 5458 5456 5452 5448 5444 5437 5434 5433 5433 5432
5565 5562 5558 5555 5551 5548 5544 5541 5537 5532 5528 5523 5519 5516 5513 5509 5505 5502 5498 5494 5491 5487 5483 5477 5472 5467 5458 5453 5450 5448 5449 5452 5450 5448 5447 5443 5439 5434 5430 5429 5430 5431 5431
5551 5548 5544 5541 5536 5533 5530 5527 5522 5517 5513 5509 5506 5503 5499 5496 5492 5488 5484 5480 5476 5472 5469 5463 5459 5454 5449 5442 5439 5436 5438 5439 5438 5438 5437 5435 5432 5428 5426 5425 5426 5428 5430
5540 5536 5533 5528 5524 5521 5517 5513 5509 5504 5501 5497 5494 5490 5486 5482 5478 5473 5470 5466 5463 5458 5454 5451 5447 5443 5437 5431 5427 5425 5424 5425 5426 5428 5429 5428 5426 5425 5425 5424 5425 5428 5428
5529 5526 5521 5516 5512 5508 5504 5500 5497 5493 5489 5485 5481 5477 5473 5471 5465 5460 5456 5453 5449 5446 5442 5438 5434 5430 5426 5422 5418 5416 5414 5414 5415 5419 5421 5423 5423 5425 5426 5428 5430 5430 5429
5520 5516 5512 5507 5501 5497 5494 5490 5486 5482 5478 5473 5469 5465 5460 5456 5452 5448 5444 5441 5437 5435 5431 5427 5423 5419 5415 5411 5409 5408 5407 5408 5410 5413 5416 5419 5423 5426 5429 5432 5433 5433 5432
5512 5507 5504 5499 5493 5489 5485 5481 5477 5472 5467 5463 5458 5454 5449 5445 5441 5437 5435 5431 5426 5423 5420 5416 5412 5408 5405 5401 5398 5398 5401 5403 5407 5409 5413 5419 5424 5429 5431 5433 5436 5437 5437
5505 5501 5497 5492 5488 5483 5478 5474 5469 5464 5458 5453 5449 5445 5441 5438 5433 5428 5422 5419 5411 5407 5404 5402 5399 5397 5394 5387 5385 5386 5391 5394 5398 5402 5410 5419 5425 5430 5433 5436 5439 5440 5441
5500 5495 5491 5487 5482 5478 5473 5467 5462 5457 5450 5445 5441 5438 5434 5430 5427 5423 5414 5406 5402 5397 5393 5389 5386 5386 5381 5381 5382 5384 5388 5393 5398 5403 5411 5418 5424 5428 5432 5436 5440 5442 5444